Regional Weather Roundup
Issued by NWS

Home | Current Version | Previous Version | Text Only | Print | Product List | Glossary On
Versions: 1 2 3 4 5 6 7 8 9 10 11 12 13 14 15 16 17 18 19 20 21 22 23 24 25 26
000
ASUS42 KKEY 271210
RWRKEY

FLORIDA REGIONAL WEATHER ROUNDUP FOR THE FLORIDA KEYS
NATIONAL WEATHER SERVICE KEY WEST FLORIDA
800 AM EDT FRI MAY 27 2016

...SOUTH FLORIDA AND THE KEYS...

CITY           SKY/WX    TMP DP  RH WIND       PRES   REMARKS
FORT MYERS     SUNNY     72  65  78 NE7       29.99R
SW REGIONAL AP SUNNY     71  65  81 NE7       30.00R
NAPLES         SUNNY     73  66  78 NE8       29.99R
MIAMI          MOSUNNY   79  67  66 NE7       29.98R
WEST KENDALL   SUNNY     77  69  76 NE6       29.98R
HOMESTEAD      PTSUNNY   81  68  65 NE12      29.97S
MARATHON       SUNNY     79  67  66 E7        29.96R
BOCA CHICA NAS MOSUNNY   81  68  64 E6        29.95S
KEY WEST INTL  SUNNY     80  70  71 SE8       29.96R

...INTERNATIONAL WEATHER...

CITY           SKY/WX    TMP DP  RH WIND       PRES   REMARKS
NASSAU BAHAMAS MOSUNNY   81  73  78 CALM      29.96F
CANCUN MEXICO  MOSUNNY   81  73  78 E5        29.89S
COZUMEL MEXICO MOSUNNY   70  70 100 CALM      29.89S

ADJACENT COASTAL WATERS...

STATION/POSITION TIME  SKY/WX   TEMP    WIND        PRES    WAVE
                                AIR SEA DIR/SP/G            HT/PER
                 (UTC)          (F)     (DEG/KT/KT) (MB)    (FT/S)
PULASKI SHOAL LI 1200            80      90/  9/ 10 1014.4R
SAND KEY         1150            80     120/ 11/ 13 1014.6R
SOMBRERO KEY     NOT AVBL
LONG KEY         1100            79 82  120/ 12/ 13 1014.6R
MOLASSES REEF    NOT AVBL
FOWEY ROCKS      1200            80 81   60/ 13/ 15 1015.6R

$$




USA.gov is the U.S. government's official web portal to all federal, state and local government web resources and services.